TimeMDT,TemperatureF,Dew PointF,Humidity,Sea Level PressureIn,VisibilityMPH,Wind Direction,Wind SpeedMPH,Gust SpeedMPH,PrecipitationIn,Events,Conditions,WindDirDegrees,DateUTC
12:53 AM,61.0,54.0,78,29.86,10.0,South,8.1,-,N/A,,Clear,190,2013-07-28 06:53:00
1:53 AM,62.1,55.0,78,29.84,10.0,South,10.4,-,N/A,,Clear,180,2013-07-28 07:53:00
2:53 AM,60.1,55.0,83,29.83,10.0,South,6.9,-,N/A,,Clear,170,2013-07-28 08:53:00
3:53 AM,60.1,55.0,83,29.81,10.0,South,8.1,-,N/A,,Clear,170,2013-07-28 09:53:00
4:53 AM,57.9,55.0,90,29.83,10.0,South,6.9,-,N/A,,Clear,180,2013-07-28 10:53:00
5:53 AM,57.0,55.0,93,29.83,10.0,South,5.8,-,N/A,,Clear,190,2013-07-28 11:53:00
6:53 AM,60.1,55.0,83,29.83,10.0,Calm,Calm,-,N/A,,Clear,0,2013-07-28 12:53:00
7:53 AM,64.0,55.0,73,29.84,10.0,Calm,Calm,-,N/A,,Clear,0,2013-07-28 13:53:00
8:53 AM,66.9,53.1,61,29.84,10.0,Calm,Calm,-,N/A,,Clear,0,2013-07-28 14:53:00
9:53 AM,70.0,54.0,57,29.83,10.0,South,4.6,-,N/A,,Clear,180,2013-07-28 15:53:00
10:53 AM,75.0,54.0,48,29.82,10.0,South,9.2,-,N/A,,Clear,190,2013-07-28 16:53:00
11:53 AM,73.9,55.0,52,29.82,9.0,South,12.7,-,0.00,Rain,Light Rain,180,2013-07-28 17:53:00
12:53 PM,75.9,55.0,48,29.79,10.0,South,10.4,-,0.01,,Partly Cloudy,180,2013-07-28 18:53:00
1:07 PM,71.6,55.4,57,30.12,9.0,SSW,16.1,32.2,0.00,Rain-Thunderstorm,Light Thunderstorms and Rain,200,2013-07-28 19:07:00
1:26 PM,69.8,57.2,64,30.11,10.0,ESE,15.0,-,0.03,Rain-Thunderstorm,Light Thunderstorms and Rain,110,2013-07-28 19:26:00
1:53 PM,73.9,59.0,59,29.77,10.0,ESE,13.8,-,0.03,Thunderstorm,Partly Cloudy,120,2013-07-28 19:53:00
2:20 PM,77.0,57.2,50,30.09,10.0,ESE,10.4,-,N/A,,Clear,110,2013-07-28 20:20:00
2:39 PM,73.4,53.6,50,30.08,10.0,ENE,17.3,-,N/A,Thunderstorm,Mostly Cloudy,70,2013-07-28 20:39:00
2:53 PM,71.1,55.9,59,29.76,10.0,East,16.1,-,0.01,Rain-Thunderstorm,Light Thunderstorms and Rain,80,2013-07-28 20:53:00
3:16 PM,66.2,57.2,73,30.11,8.0,North,20.7,38.0,0.01,Rain,Rain,10,2013-07-28 21:16:00
3:23 PM,66.2,53.6,64,30.11,8.0,North,10.4,-,0.02,Rain-Thunderstorm,Light Thunderstorms and Rain,10,2013-07-28 21:23:00
3:38 PM,68.0,57.2,68,30.11,10.0,North,5.8,-,0.02,Rain,Light Rain,350,2013-07-28 21:38:00
3:53 PM,71.1,57.0,61,29.78,10.0,NE,5.8,-,0.02,,Partly Cloudy,40,2013-07-28 21:53:00
4:53 PM,77.0,51.1,40,29.77,10.0,North,9.2,-,N/A,,Clear,360,2013-07-28 22:53:00
5:53 PM,78.1,50.0,37,29.78,10.0,North,3.5,-,N/A,,Partly Cloudy,10,2013-07-28 23:53:00
6:53 PM,70.0,57.0,63,29.82,10.0,Calm,Calm,-,N/A,,Mostly Cloudy,0,2013-07-29 00:53:00
7:53 PM,68.0,60.1,76,29.82,10.0,ESE,9.2,-,N/A,,Partly Cloudy,120,2013-07-29 01:53:00
8:53 PM,64.9,57.9,78,29.84,10.0,SSE,11.5,-,N/A,,Clear,160,2013-07-29 02:53:00
9:53 PM,63.0,59.0,87,29.85,10.0,South,11.5,-,N/A,,Partly Cloudy,170,2013-07-29 03:53:00
10:53 PM,62.1,57.9,86,29.84,10.0,SW,8.1,-,N/A,,Clear,230,2013-07-29 04:53:00
11:53 PM,61.0,57.9,90,29.84,10.0,SSW,6.9,-,N/A,,Clear,200,2013-07-29 05:53:00